Weather History for Hulett, WY

Change the Weather History Date:

Saturday, December 7, 2013

  Actual Average (KEFC) Record (KEFC)
Temperature  
Mean Temperature -10 °F -  
Max Temperature -4 °F 37 °F 62 °F (1970)
Min Temperature -16 °F 13 °F -18 °F (1972)
Degree Days  
Heating Degree Days 75    
Moisture  
Dew Point -18 °F    
Average Humidity 77    
Maximum Humidity 84    
Minimum Humidity 70    
Precipitation  
Precipitation 0.00 in - - ()
Sea Level Pressure  
Sea Level Pressure 30.09 in    
Wind  
Wind Speed 2 mph (North)    
Max Wind Speed 7 mph    
Max Gust Speed -    
Visibility 8 miles    
Events Snow    
Averages and records for this station are not official NWS values.
T = Trace of Precipitation, MM = Missing Value Source: NWS Daily Summary

Daily Weather History Graph

Daily Weather History Graph

Search for Another Location

Airport:

Trip Planner

Search our weather history database for the weather conditions in past years. The results will help you decide how hot, cold, wet, or windy it might be!

Date:

Astronomy

Dec. 07, 2013 Rise Set
Actual Time 7:21 AM MST 4:17 PM MST
Civil Twilight 6:48 AM MST 4:51 PM MST
Nautical Twilight 6:11 AM MST 5:27 PM MST
Astronomical Twilight 5:36 AM MST 6:03 PM MST
Moon 10:59 AM MST (12/7) 10:12 PM MST (12/7)
Length of Visible Light 10h 02m
Length of Day
8h 56m
Waxing Crescent, 30% of the Moon is Illuminated
Dec 7
Waxing Crescent
Dec 9
First Quarter
Dec 17
Full
Dec 25
Last Quarter
Jan 1
New

Hourly Weather History & Observations

Time (MST) Temp. Windchill Dew Point Humidity Pressure Visibility Wind Dir Wind Speed Gust Speed Precip Events Conditions
12:15 AM -14.8 °F - -20.2 °F 77% 30.28 in 10.0 mi North - - N/A   Scattered Clouds
12:35 AM -14.8 °F - -20.2 °F 77% 30.26 in 10.0 mi Calm Calm - N/A   Overcast
12:55 AM -14.8 °F - -20.2 °F 77% 30.26 in 10.0 mi Calm Calm - N/A   Overcast
1:15 AM -14.8 °F - -18.4 °F 84% 30.26 in 10.0 mi North - - N/A   Overcast
1:35 AM -13.0 °F - -18.4 °F 77% 30.26 in 7.0 mi North - - N/A Snow Light Snow
1:55 AM -13.0 °F - -18.4 °F 77% 30.26 in 5.0 mi North - - N/A Snow Light Snow
2:15 AM -14.8 °F - -18.4 °F 84% 30.25 in 7.0 mi Calm Calm - N/A Snow Light Snow
2:35 AM -14.8 °F - -20.2 °F 77% 30.25 in 10.0 mi Calm Calm - N/A   Overcast
2:55 AM -14.8 °F - -20.2 °F 77% 30.25 in 10.0 mi Calm Calm - N/A   Overcast
3:15 AM -14.8 °F - -18.4 °F 84% 30.24 in 7.0 mi North - - N/A   Overcast
3:35 AM -14.8 °F - -20.2 °F 77% 30.24 in 5.0 mi North - - N/A   Haze
3:55 AM -14.8 °F - -22.0 °F 70% 30.24 in 7.0 mi North - - N/A   Overcast
4:15 AM -14.8 °F - -20.2 °F 77% 30.23 in 7.0 mi North - - N/A   Overcast
4:35 AM -14.8 °F - -20.2 °F 77% 30.23 in 4.0 mi Calm Calm - N/A Snow Light Snow
4:55 AM -16.6 °F - -22.0 °F 76% 30.21 in 10.0 mi North - - N/A   Scattered Clouds
5:15 AM -16.6 °F - -22.0 °F 76% 30.20 in 10.0 mi North - - N/A Snow Light Snow
5:35 AM -16.6 °F -26.8 °F -23.8 °F 70% 30.20 in 10.0 mi North 3.5 mph - N/A   Scattered Clouds
5:55 AM -16.6 °F - -23.8 °F 70% 30.20 in 10.0 mi North - - N/A   Mostly Cloudy
6:15 AM -16.6 °F - -22.0 °F 76% 30.20 in 10.0 mi North - - N/A   Overcast
6:35 AM -16.6 °F - -22.0 °F 76% 30.20 in 10.0 mi North - - N/A   Overcast
6:55 AM -16.6 °F - -22.0 °F 76% 30.20 in 10.0 mi North - - N/A   Overcast
7:15 AM -16.6 °F - -22.0 °F 76% 30.19 in 7.0 mi North - - N/A   Overcast
7:35 AM -16.6 °F - -22.0 °F 76% 30.19 in 7.0 mi North - - N/A   Overcast
7:55 AM -16.6 °F - -22.0 °F 76% 30.19 in 5.0 mi North - - N/A   Haze
8:15 AM -16.6 °F - -22.0 °F 76% 30.19 in 7.0 mi North - - N/A Snow Light Snow
8:35 AM -14.8 °F - -22.0 °F 70% 30.19 in 5.0 mi North - - N/A   Haze
8:55 AM -14.8 °F - -20.2 °F 77% 30.19 in 10.0 mi North - - N/A   Scattered Clouds
9:15 AM -14.8 °F - -18.4 °F 84% 30.18 in 10.0 mi North - - N/A   Clear
9:35 AM -13.0 °F - -18.4 °F 77% 30.18 in 10.0 mi Calm Calm - N/A Snow Light Snow
9:55 AM -13.0 °F - -16.6 °F 84% 30.19 in 10.0 mi North - - N/A   Clear
10:15 AM -11.2 °F - -16.6 °F 77% 30.18 in 10.0 mi North - - N/A   Scattered Clouds
10:35 AM -9.4 °F - -16.6 °F 71% 30.16 in 7.0 mi Calm Calm - N/A   Scattered Clouds
10:55 AM -9.4 °F -20.9 °F -14.8 °F 77% 30.15 in 10.0 mi NNW 4.6 mph - N/A   Clear
11:15 AM -7.6 °F -18.8 °F -14.8 °F 71% 30.13 in 10.0 mi NNW 4.6 mph - N/A   Clear
11:35 AM -7.6 °F - -13.0 °F 77% 30.11 in 10.0 mi North - - N/A   Clear
11:55 AM -5.8 °F -18.4 °F -13.0 °F 71% 30.10 in 10.0 mi North 5.8 mph - N/A   Clear
12:15 PM -5.8 °F -19.9 °F -11.2 °F 77% 30.10 in 10.0 mi North 6.9 mph - N/A   Clear
12:35 PM -5.8 °F - -11.2 °F 77% 30.08 in 10.0 mi North - - N/A   Clear
12:55 PM -4.0 °F -17.8 °F -11.2 °F 71% 30.07 in 10.0 mi North 6.9 mph - N/A   Clear
1:15 PM -4.0 °F -12.4 °F -11.2 °F 71% 30.06 in 10.0 mi North 3.5 mph - N/A   Clear
1:35 PM -4.0 °F -16.3 °F -11.2 °F 71% 30.04 in 10.0 mi North 5.8 mph - N/A   Clear
1:55 PM -4.0 °F -16.3 °F -11.2 °F 71% 30.03 in 10.0 mi NNE 5.8 mph - N/A   Clear
2:15 PM -5.8 °F -19.9 °F -13.0 °F 71% 30.02 in 10.0 mi NE 6.9 mph - N/A   Clear
2:35 PM -5.8 °F -19.9 °F -13.0 °F 71% 30.01 in 10.0 mi NE 6.9 mph - N/A   Clear
2:55 PM -5.8 °F -18.4 °F -13.0 °F 71% 30.00 in 10.0 mi NNE 5.8 mph - N/A   Clear
3:15 PM -7.6 °F -18.8 °F -13.0 °F 77% 29.99 in 10.0 mi North 4.6 mph - N/A   Clear
3:35 PM -7.6 °F -18.8 °F -14.8 °F 71% 29.98 in 10.0 mi North 4.6 mph - N/A   Clear
3:55 PM -9.4 °F - -14.8 °F 77% 29.98 in 10.0 mi North - - N/A   Clear
4:15 PM -11.2 °F - -16.6 °F 77% 29.98 in 10.0 mi North - - N/A   Clear
4:35 PM -13.0 °F - -16.6 °F 84% 29.98 in 10.0 mi North - - N/A   Clear
4:55 PM -13.0 °F - -18.4 °F 77% 29.98 in 10.0 mi North - - N/A   Clear
5:15 PM -14.8 °F - -18.4 °F 84% 29.98 in 10.0 mi North - - N/A   Clear
5:35 PM -14.8 °F - -18.4 °F 84% 29.98 in 10.0 mi North - - N/A   Mostly Cloudy
5:55 PM -14.8 °F - -18.4 °F 84% 29.97 in 10.0 mi North - - N/A   Mostly Cloudy
6:15 PM -14.8 °F - -18.4 °F 84% 29.96 in 10.0 mi North - - N/A   Scattered Clouds
6:35 PM -14.8 °F - -18.4 °F 84% 29.95 in 10.0 mi Calm Calm - N/A   Clear
6:55 PM -14.8 °F - -18.4 °F 84% 29.95 in 10.0 mi Calm Calm - N/A   Clear
7:15 PM -14.8 °F - -20.2 °F 77% 29.94 in 10.0 mi North - - N/A   Scattered Clouds
7:35 PM -14.8 °F - -18.4 °F 84% 29.94 in 10.0 mi Calm Calm - N/A   Scattered Clouds
7:55 PM -14.8 °F - -18.4 °F 84% 29.94 in 10.0 mi North - - N/A Snow Light Snow
8:15 PM -14.8 °F - -18.4 °F 84% 29.94 in 7.0 mi North - - N/A   Overcast
8:35 PM -13.0 °F - -18.4 °F 77% 29.93 in 1.8 mi Calm Calm - N/A Snow Light Snow
8:55 PM -13.0 °F - -16.6 °F 84% 29.93 in 2.0 mi North - - N/A Snow Light Snow
9:15 PM -11.2 °F - -16.6 °F 77% 29.92 in 2.0 mi Calm Calm - N/A Snow Light Snow
9:35 PM -13.0 °F - -16.6 °F 84% 29.91 in 1.5 mi North - - N/A Snow Light Snow
9:55 PM -13.0 °F - -16.6 °F 84% 29.91 in 1.8 mi Calm Calm - N/A Snow Light Snow
10:15 PM -11.2 °F - -16.6 °F 77% 29.91 in 1.8 mi North - - N/A Snow Light Snow
10:35 PM -9.4 °F - -14.8 °F 77% 29.90 in 1.0 mi North - - N/A Snow Light Snow
10:55 PM -9.4 °F - -14.8 °F 77% 29.90 in 1.5 mi Calm Calm - N/A Snow Light Snow
11:15 PM -9.4 °F - -14.8 °F 77% 29.89 in 1.0 mi Calm Calm - N/A Snow Light Snow
11:35 PM -9.4 °F - -14.8 °F 77% 29.88 in 1.2 mi North - - N/A Snow Light Snow
11:55 PM -9.4 °F - -14.8 °F 77% 29.87 in 1.5 mi North - - N/A Snow Light Snow